Weather History for Denton, TX

Change the Weather History Date:

Thursday, October 17, 2013

  Actual Average Record
Temperature  
Mean Temperature 54 °F -  
Max Temperature 70 °F 75 °F 91 °F (2005)
Min Temperature 39 °F 51 °F 35 °F (2001)
Degree Days  
Heating Degree Days 11    
Growing Degree Days 4 (Base 50)    
Moisture  
Dew Point 44 °F    
Average Humidity 72    
Maximum Humidity 100    
Minimum Humidity 39    
Precipitation  
Precipitation 0.00 in - - ()
Sea Level Pressure  
Sea Level Pressure 30.06 in    
Wind  
Wind Speed 3 mph (South)    
Max Wind Speed 7 mph    
Max Gust Speed -    
Visibility 10 miles    
Events      
Averages and records for this station are not official NWS values.
T = Trace of Precipitation, MM = Missing Value Source: NWS Daily Summary

Daily Weather History Graph

Daily Weather History Graph

Search for Another Location

Airport:

Trip Planner

Search our weather history database for the weather conditions in past years. The results will help you decide how hot, cold, wet, or windy it might be!

Date:

Astronomy

Oct. 17, 2013 Rise Set
Actual Time 7:34 AM CDT 6:52 PM CDT
Civil Twilight 7:09 AM CDT 7:17 PM CDT
Nautical Twilight 6:41 AM CDT 7:46 PM CDT
Astronomical Twilight 6:12 AM CDT 8:15 PM CDT
Moon 6:05 PM CDT (10/17) 6:11 AM CDT (10/17)
Length of Visible Light 12h 07m
Length of Day
11h 17m
Waxing Gibbous, 98% of the Moon is Illuminated
Oct 17
Waxing Gibbous
Oct 18
Full
Oct 26
Last Quarter
Nov 3
New
Nov 9
First Quarter

Hourly Weather History & Observations

Time (CDT) Temp. Windchill Dew Point Humidity Pressure Visibility Wind Dir Wind Speed Gust Speed Precip Events Conditions
12:53 AM 48.9 °F - 45.0 °F 86% 30.09 in 10.0 mi NW 5.8 mph - N/A   Clear
1:53 AM 46.9 °F - 44.1 °F 90% 30.08 in 10.0 mi NW 4.6 mph - N/A   Clear
2:53 AM 46.9 °F - 43.0 °F 86% 30.08 in 10.0 mi Calm Calm - N/A   Clear
3:53 AM 43.0 °F 39.5 °F 42.1 °F 97% 30.08 in 10.0 mi WNW 5.8 mph - N/A   Clear
4:53 AM 43.0 °F - 42.1 °F 97% 30.08 in 10.0 mi Calm Calm - N/A   Clear
5:53 AM 42.1 °F - 41.0 °F 96% 30.08 in 10.0 mi Calm Calm - N/A   Clear
6:53 AM 41.0 °F - 39.9 °F 96% 30.09 in 10.0 mi Calm Calm - N/A   Clear
7:53 AM 39.9 °F - 39.9 °F 100% 30.11 in 10.0 mi Calm Calm - N/A   Clear
8:53 AM 45.0 °F - 44.1 °F 97% 30.12 in 10.0 mi Calm Calm - N/A   Clear
9:53 AM 51.1 °F - 46.0 °F 83% 30.14 in 10.0 mi NNW 3.5 mph - N/A   Clear
10:53 AM 57.0 °F - 42.1 °F 57% 30.13 in 10.0 mi Calm Calm - N/A   Clear
11:53 AM 62.1 °F - 43.0 °F 50% 30.12 in 10.0 mi Variable 4.6 mph - N/A   Clear
12:53 PM 64.9 °F - 43.0 °F 45% 30.09 in 10.0 mi South 6.9 mph - N/A   Clear
1:53 PM 66.0 °F - 42.1 °F 42% 30.05 in 10.0 mi South 4.6 mph - N/A   Clear
2:53 PM 68.0 °F - 43.0 °F 40% 30.03 in 10.0 mi SSW 3.5 mph - N/A   Clear
3:53 PM 69.1 °F - 43.0 °F 39% 30.01 in 10.0 mi Variable 3.5 mph - N/A   Clear
4:53 PM 69.1 °F - 43.0 °F 39% 30.00 in 10.0 mi SSW 5.8 mph - N/A   Clear
5:53 PM 68.0 °F - 43.0 °F 40% 29.99 in 10.0 mi South 6.9 mph - N/A   Clear
6:53 PM 62.1 °F - 48.0 °F 60% 29.98 in 10.0 mi SSE 5.8 mph - N/A   Clear
7:53 PM 60.1 °F - 46.9 °F 62% 29.99 in 10.0 mi SSE 3.5 mph - N/A   Clear
8:53 PM 57.0 °F - 48.0 °F 72% 30.01 in 10.0 mi SSE 3.5 mph - N/A   Clear
9:53 PM 54.0 °F - 48.9 °F 83% 30.01 in 10.0 mi ESE 3.5 mph - N/A   Clear
10:53 PM 54.0 °F - 48.0 °F 80% 30.00 in 10.0 mi Calm Calm - N/A   Clear
11:53 PM 53.1 °F - 48.0 °F 83% 29.99 in 10.0 mi ESE 3.5 mph - N/A   Clear